Torna al catalogo

THORAD AGENA D DEB

AttivoSSO
NORAD 4756·DEBRIS·🇺🇸 United States

Lanciato Apr 8, 1970 da Vandenberg Space Force Base

Loading…

Prossimi Passaggi

TLE

Source: Space-Track
1 04756U 70025DE  26218.39553784  .00000005  00000-0  82506-4 0  9999
2 04756 100.2343 259.3635 0028291  60.3348 300.0595 13.49426385768880

Traccia THORAD AGENA D DEB in tempo reale con AllMySat

Download on the App Store